[[{"header":{"parameterUnit":"m.s-1","parameterCategory":1,"la1":30.2991,"la2":30.254,"lo1":-89.0895,"lo2":-89.0444,"dy":0.0017,"dx":0.0017,"nx":28,"ny":28,"refTime":"2024-10-20T09:00:00:Z","depth":0,"parameterNumber":2,"parameterNumberName":"U-component_of_WINDS"},"data":[0,0,0,0,0,0,0,0,0,0,0,0,0,0,0,0,0,0,0,0,0,0,0,0,0,0,0,0,0,0,0,0,0,0,0,0,0,0,0,0,0,0,0,0,0,0,0,0,0,0,0,0,0,0,0,0,0,0,-3.3584,-3.3586,0,-3.374,-3.3742,-3.3744,-3.3702,-3.3698,-3.3695,-3.3692,-3.3851,-3.3858,-3.3865,0,0,0,0,0,0,0,0,0,0,0,0,0,-3.325,-3.3257,-3.3584,-3.3586,-3.3588,-3.374,-3.3742,-3.3744,-3.3702,-3.3698,-3.3695,-3.3691,-3.3849,-3.3858,-3.3866,0,0,0,0,0,0,0,0,0,0,0,0,0,-3.34,-3.3259,-3.3584,-3.3586,-3.3587,-3.3739,-3.3742,-3.3745,-3.3703,-3.3698,-3.3694,-3.3689,-3.3846,-3.3857,-3.3867,-3.4027,0,0,-3.39,-3.3905,0,0,0,0,0,0,0,0,-3.3391,-3.3412,-3.3583,-3.3586,-3.3588,-3.3697,-3.3682,-3.3839,-3.3704,-3.3659,-3.3692,-3.3687,-3.3804,-3.3818,-3.3857,-3.4035,-3.4041,-3.3901,-3.3907,-3.3912,-3.3915,0,0,0,0,0,0,0,-3.3381,-3.3405,-3.3646,-3.3586,-3.3589,-3.3578,-3.3594,-3.3712,-3.3756,-3.3663,-3.366,-3.3679,-3.3804,-3.3847,-3.386,-3.4044,-3.3901,-3.391,-3.3917,-3.3921,-3.4361,-3.4366,0,0,0,0,0,0,-3.3369,-3.3397,-3.3641,-3.3651,-3.3476,-3.3588,-3.3606,-3.3666,-3.3754,-3.3763,-3.3683,-3.3676,-3.3831,-3.3848,-3.3866,-3.406,-3.3912,-3.3922,-3.3928,-3.4356,-3.4362,-3.4368,0,0,0,0,0,0,-3.3362,-3.3391,-3.3635,-3.3523,-3.3553,-3.3599,-3.3667,-3.3672,-3.3715,-3.377,-3.3777,-3.3719,-3.3828,-3.3851,-3.3988,-3.4065,-3.3927,-3.3937,-3.435,-3.4358,-3.4365,-3.4448,0,0,0,0,0,0,-3.3352,-3.3389,-3.345,-3.3525,-3.3559,-3.3754,-3.3672,-3.3678,-3.3733,-3.3727,-3.3805,-3.3814,-3.3826,-3.3972,-3.3998,-3.4077,-3.3945,-3.4343,-3.4353,-3.4362,-3.4439,-3.4458,-3.4474,0,0,0,0,0,-3.3341,-3.3467,-3.3453,-3.3483,-3.3637,-3.3759,-3.3778,-3.379,-3.374,-3.3802,-3.3837,-3.3811,-3.4052,-3.3986,-3.4016,-3.4099,-3.4338,-3.435,-3.4362,-3.4431,-3.4454,-3.4474,0,0,0,0,0,0,-3.34,-3.3477,-3.3463,-3.3617,-3.3682,-3.3751,-3.383,-3.3814,-3.3894,-3.3885,-3.3895,-3.3914,-3.4054,-3.4089,-3.4015,-3.4258,-3.4188,-3.4206,-3.423,-3.4253,-3.427,-3.4259,-3.3954,0,0,0,0,0,-3.3431,-3.3524,-3.3586,-3.3716,-3.3749,-3.3784,-3.3837,-3.3841,-3.3908,-3.3935,-3.398,-3.4047,-3.4137,-3.4197,-3.4283,-3.4443,-3.446,-3.4515,-3.4532,-3.4547,-3.4563,-3.4651,-3.4676,-3.4407,-3.4407,-3.4406,0,0,-3.3496,-3.355,-3.3607,-3.3729,-3.378,-3.3875,-3.3807,-3.3911,-3.3982,-3.3951,-3.4083,-3.4119,-3.4193,-3.4343,-3.4411,-3.4377,-3.4641,-3.4562,-3.4573,-3.4581,-3.4666,-3.4691,-3.4714,-3.4415,-3.4413,-3.4412,0,0,-3.3664,-3.3714,-3.3828,-3.388,-3.3958,-3.398,-3.4007,-3.408,-3.4103,-3.4235,-3.4214,-3.4298,-3.4454,-3.4508,-3.4556,-3.4745,-3.4725,-3.4773,-3.4866,-3.4952,-3.4973,-3.4992,-3.506,-3.5084,-3.4788,-3.4788,-3.4789,0,-3.3735,-3.3879,-3.3888,-3.3995,-3.4049,-3.4025,-3.4141,-3.4191,-3.4293,-3.4331,-3.4291,-3.4487,-3.4535,-3.4697,-3.4744,-3.4783,-3.4815,-3.4764,-3.4969,-3.4988,-3.5006,-3.5071,-3.5097,-3.4794,-3.4793,-3.4793,-3.4792,0,-3.3963,-3.4063,-3.4146,-3.4245,-3.4309,-3.4419,-3.4446,-3.4509,-3.4507,-3.4533,-3.4669,-3.4726,-3.4824,-3.4863,-3.4861,-3.5025,-3.5002,-3.4966,-3.4895,-3.5037,-3.5098,-3.5123,-3.4802,-3.48,-3.4798,-3.4797,0,0,-3.4173,-3.4277,-3.4307,-3.4352,-3.4436,-3.4513,-3.4623,-3.4719,-3.4773,-3.4844,-3.4936,-3.5068,-3.5036,-3.509,-3.5095,-3.517,-3.5317,-3.5125,-3.5127,-3.5159,-3.5502,-3.5529,-3.5558,-3.5303,-3.5308,-3.5312,-3.5496,0,-3.4349,-3.4542,-3.4554,-3.4729,-3.4822,-3.4801,-3.4896,-3.4958,-3.4986,-3.5068,-3.5098,-3.5193,-3.5142,-3.5175,-3.5248,-3.5283,-3.5386,-3.527,-3.539,-3.5394,-3.5373,-3.559,-3.5619,-3.579,-3.552,-3.5524,-3.5527,0,-3.458,-3.4659,-3.4843,-3.4915,-3.4954,-3.5039,-3.5129,-3.5208,-3.5277,-3.5292,-3.5353,-3.5347,-3.546,-3.5384,-3.554,-3.5461,-3.551,-3.5535,-3.5542,-3.5554,-3.547,-3.5609,-3.5845,-3.5871,-3.5565,-3.5562,-3.5559,0,-3.4716,-3.4868,-3.4998,-3.5037,-3.5123,-3.5184,-3.5223,-3.5288,-3.5345,-3.5422,-3.546,-3.5549,-3.5599,-3.5668,-3.5687,-3.563,-3.5842,-3.5768,-3.5858,-3.5858,-3.5904,-3.5901,-3.6152,-3.5935,-3.5934,-3.5934,-3.5933,0,-3.4912,-3.5026,-3.5061,-3.5141,-3.5268,-3.528,-3.5405,-3.544,-3.5498,-3.5585,-3.5571,-3.5653,-3.5672,-3.5757,-3.5772,-3.5899,-3.5921,-3.5936,-3.5939,-3.5938,-3.5936,-3.5971,-3.596,-3.5941,-3.5939,-3.5938,-3.5937,0,-3.5086,-3.5113,-3.5254,-3.5324,-3.5344,-3.5435,-3.5495,-3.5572,-3.5598,-3.5708,-3.5734,-3.5775,-3.5875,-3.59,-3.6018,-3.6028,-3.6179,-3.617,-3.6155,-3.6155,-3.6244,-3.6236,-3.6527,-3.6566,-3.6322,-3.6325,-3.6327,0,-3.5209,-3.5297,-3.5376,-3.5434,-3.5475,-3.5567,-3.5625,-3.5641,-3.5702,-3.5788,-3.5855,-3.5953,-3.6032,-3.6193,-3.6233,-3.6324,-3.6318,-3.6413,-3.6331,-3.6328,-3.632,-3.6315,-3.6324,-3.6429,-3.6432,-3.6434,-3.6436,0,-3.5426,-3.5436,-3.552,-3.5611,-3.5681,-3.5752,-3.582,-3.5868,-3.5893,-3.5962,-3.6064,-3.6126,-3.6247,-3.6345,-3.6437,-3.6476,-3.6461,-3.6461,-3.6487,-3.6487,-3.6476,-3.6484,-3.6199,-3.6455,-3.6453,-3.6451,-3.645,-3.645,-3.558,-3.5656,-3.5725,-3.582,-3.5873,-3.5937,-3.6013,-3.6048,-3.6134,-3.6234,-3.6238,-3.6349,-3.6416,-3.6538,-3.6583,-3.667,-3.6641,-3.6678,-3.6688,-3.6697,-3.6705,-3.6461,-3.6687,-3.6686,-3.6686,-3.6685,-3.6685,0,-3.5796,-3.5839,-3.5926,-3.6023,-3.6098,-3.6076,-3.6151,-3.6215,-3.6313,-3.6377,-3.6456,-3.6573,-3.6668,-3.6715,-3.681,-3.687,-3.6866,-3.6894,-3.6891,-3.69,-3.6725,-3.6694,-3.6897,-3.6897,-3.6897,-3.6897,-3.6897,-3.6896,-3.5918,-3.6047,-3.6065,-3.622,-3.6262,-3.6371,-3.6415,-3.6475,-3.6526,-3.6658,-3.6737,-3.6767,-3.6825,-3.6923,-3.701,-3.7021,-3.7057,-3.709,-3.7098,-3.6934,-3.6912,-3.6892,-3.6862,-3.7097,-3.7097,-3.7265,-3.7267,-3.7268]},{"header":{"parameterUnit":"m.s-1","parameterCategory":1,"la1":30.2991,"la2":30.254,"lo1":-89.0895,"lo2":-89.0444,"dy":0.0017,"dx":0.0017,"nx":28,"ny":28,"refTime":"2024-10-20T09:00:00:Z","depth":0,"parameterNumber":3,"parameterNumberName":"V-component_of_WINDS"},"data":[0,0,0,0,0,0,0,0,0,0,0,0,0,0,0,0,0,0,0,0,0,0,0,0,0,0,0,0,0,0,0,0,0,0,0,0,0,0,0,0,0,0,0,0,0,0,0,0,0,0,0,0,0,0,0,0,0,0,-3.0382,-3.0382,0,-3.0385,-3.0385,-3.0385,-3.0311,-3.0309,-3.0307,-3.0305,-3.0308,-3.031,-3.0312,0,0,0,0,0,0,0,0,0,0,0,0,0,-3.0313,-3.0315,-3.0382,-3.0382,-3.0382,-3.0385,-3.0385,-3.0385,-3.0312,-3.0309,-3.0307,-3.0305,-3.0307,-3.0309,-3.0312,0,0,0,0,0,0,0,0,0,0,0,0,0,-3.0332,-3.0315,-3.0382,-3.0346,-3.0343,-3.0385,-3.0385,-3.0385,-3.0312,-3.0309,-3.0306,-3.0303,-3.0306,-3.0309,-3.0312,-3.0388,0,0,-3.0321,-3.0322,0,0,0,0,0,0,0,0,-3.0331,-3.0335,-3.0351,-3.0349,-3.0345,-3.0345,-3.0361,-3.0386,-3.0313,-3.0324,-3.0305,-3.0302,-3.0322,-3.0324,-3.0331,-3.0388,-3.0389,-3.0321,-3.0323,-3.0324,-3.0325,0,0,0,0,0,0,0,-3.033,-3.0334,-3.0383,-3.0352,-3.0348,-3.0329,-3.0329,-3.0365,-3.034,-3.0323,-3.0317,-3.0319,-3.032,-3.0328,-3.033,-3.0389,-3.0321,-3.0323,-3.0325,-3.0326,-3.0508,-3.0511,0,0,0,0,0,0,-3.0334,-3.0334,-3.0383,-3.0383,-3.0331,-3.0333,-3.0332,-3.0348,-3.0339,-3.0335,-3.0321,-3.0315,-3.0325,-3.0327,-3.033,-3.0418,-3.0324,-3.0327,-3.0328,-3.0504,-3.0508,-3.0512,0,0,0,0,0,0,-3.0332,-3.0339,-3.0383,-3.0357,-3.0361,-3.0337,-3.0355,-3.0349,-3.0357,-3.0338,-3.0333,-3.0334,-3.0323,-3.0326,-3.0374,-3.0417,-3.0328,-3.033,-3.0501,-3.0506,-3.051,-3.0595,0,0,0,0,0,0,-3.0331,-3.0339,-3.0368,-3.0358,-3.0363,-3.0428,-3.0358,-3.0352,-3.0362,-3.0355,-3.0349,-3.0345,-3.032,-3.037,-3.0377,-3.0419,-3.0333,-3.0497,-3.0503,-3.0508,-3.0588,-3.0602,-3.0614,0,0,0,0,0,-3.0328,-3.0392,-3.037,-3.0376,-3.0399,-3.043,-3.0433,-3.0404,-3.0366,-3.0395,-3.0382,-3.0345,-3.0411,-3.0376,-3.0383,-3.0427,-3.0494,-3.0501,-3.0508,-3.0583,-3.0599,-3.0613,0,0,0,0,0,0,-3.0408,-3.039,-3.0365,-3.0428,-3.0431,-3.0418,-3.0453,-3.0423,-3.0437,-3.0429,-3.0392,-3.0391,-3.0445,-3.044,-3.0401,-3.0499,-3.0446,-3.0455,-3.05,-3.0516,-3.0528,-3.0528,-3.0335,0,0,0,0,0,-3.0433,-3.046,-3.0443,-3.05,-3.0502,-3.0478,-3.049,-3.0467,-3.0469,-3.047,-3.0461,-3.0464,-3.0485,-3.05,-3.0519,-3.0587,-3.0584,-3.0621,-3.0633,-3.0644,-3.0652,-3.0686,-3.0702,-3.0535,-3.0535,-3.0534,0,0,-3.0484,-3.0478,-3.0497,-3.0515,-3.0515,-3.0544,-3.048,-3.0513,-3.0533,-3.0475,-3.052,-3.0513,-3.0514,-3.0573,-3.0598,-3.057,-3.0697,-3.0653,-3.0661,-3.0664,-3.0695,-3.0711,-3.0725,-3.0539,-3.0539,-3.0538,0,0,-3.0593,-3.0591,-3.0637,-3.0638,-3.0638,-3.0621,-3.0633,-3.0624,-3.0617,-3.0661,-3.0618,-3.0642,-3.068,-3.0682,-3.0688,-3.0795,-3.0761,-3.0802,-3.0869,-3.0903,-3.0916,-3.0928,-3.0966,-3.098,-3.081,-3.0811,-3.0811,0,-3.0657,-3.0698,-3.0665,-3.0701,-3.0709,-3.0658,-3.0704,-3.0706,-3.0713,-3.072,-3.0689,-3.0735,-3.0732,-3.0789,-3.0815,-3.0822,-3.0833,-3.0803,-3.0917,-3.0928,-3.0939,-3.0974,-3.0989,-3.0816,-3.0815,-3.0814,-3.0814,0,-3.0776,-3.0806,-3.0843,-3.085,-3.0863,-3.0904,-3.0876,-3.0893,-3.0869,-3.0855,-3.09,-3.0894,-3.091,-3.0922,-3.0899,-3.0976,-3.0959,-3.0924,-3.0869,-3.096,-3.0993,-3.1006,-3.0823,-3.0821,-3.0819,-3.0818,0,0,-3.0936,-3.0923,-3.0937,-3.0939,-3.0935,-3.0957,-3.0995,-3.101,-3.1025,-3.1031,-3.1062,-3.1094,-3.1061,-3.1068,-3.1044,-3.1074,-3.1159,-3.1034,-3.1034,-3.1057,-3.1242,-3.1269,-3.1285,-3.1136,-3.1138,-3.114,-3.1242,0,-3.104,-3.1105,-3.1075,-3.1143,-3.1168,-3.1119,-3.1152,-3.1153,-3.1141,-3.116,-3.1147,-3.117,-3.1125,-3.1128,-3.1156,-3.1143,-3.1195,-3.1135,-3.1164,-3.1165,-3.1165,-3.1302,-3.1331,-3.1427,-3.1255,-3.1257,-3.1258,0,-3.1171,-3.1182,-3.1252,-3.1241,-3.1251,-3.1281,-3.1292,-3.1312,-3.1312,-3.1301,-3.1308,-3.1277,-3.1313,-3.1259,-3.1308,-3.1267,-3.1277,-3.1272,-3.1275,-3.1277,-3.1217,-3.1307,-3.1457,-3.1472,-3.1278,-3.1277,-3.1275,0,-3.128,-3.1311,-3.1357,-3.136,-3.135,-3.1372,-3.1369,-3.1365,-3.1376,-3.1385,-3.1392,-3.1406,-3.1413,-3.1425,-3.1398,-3.1361,-3.145,-3.1394,-3.1442,-3.1442,-3.1463,-3.1462,-3.1616,-3.147,-3.147,-3.1469,-3.1469,0,-3.1399,-3.1444,-3.1405,-3.1433,-3.1481,-3.1447,-3.1495,-3.1486,-3.1483,-3.1508,-3.1467,-3.1491,-3.1455,-3.1475,-3.1455,-3.1498,-3.1502,-3.1493,-3.1487,-3.1497,-3.1498,-3.1503,-3.1496,-3.1473,-3.1472,-3.1472,-3.1471,0,-3.1529,-3.1505,-3.1551,-3.1537,-3.1534,-3.157,-3.1558,-3.1583,-3.1567,-3.1599,-3.1605,-3.158,-3.1602,-3.1577,-3.1597,-3.1583,-3.1641,-3.1626,-3.1642,-3.1637,-3.1686,-3.1681,-3.1848,-3.1868,-3.171,-3.1711,-3.1713,0,-3.1607,-3.164,-3.1629,-3.1642,-3.1641,-3.1664,-3.1674,-3.1641,-3.1653,-3.1654,-3.1679,-3.1698,-3.1711,-3.1748,-3.1732,-3.1747,-3.1731,-3.1789,-3.1733,-3.1742,-3.1731,-3.173,-3.1733,-3.18,-3.1802,-3.1804,-3.1805,0,-3.1747,-3.1733,-3.175,-3.1762,-3.1775,-3.1783,-3.1788,-3.1802,-3.1767,-3.1783,-3.1805,-3.1815,-3.1835,-3.1854,-3.1864,-3.186,-3.1827,-3.1822,-3.1834,-3.1844,-3.1852,-3.1848,-3.1672,-3.1819,-3.1817,-3.1816,-3.1815,-3.1815,-3.1853,-3.1879,-3.1875,-3.1895,-3.1894,-3.19,-3.1922,-3.1909,-3.1926,-3.194,-3.1919,-3.1946,-3.1943,-3.1954,-3.1954,-3.1974,-3.195,-3.1967,-3.1971,-3.1976,-3.1983,-3.1849,-3.1976,-3.1976,-3.1975,-3.1975,-3.1975,0,-3.1991,-3.1985,-3.2003,-3.2011,-3.2026,-3.1993,-3.1996,-3.2011,-3.2035,-3.2035,-3.2048,-3.2073,-3.2091,-3.2076,-3.209,-3.2109,-3.2095,-3.2114,-3.2112,-3.2112,-3.2004,-3.1992,-3.2126,-3.2126,-3.2126,-3.2126,-3.2126,-3.2126,-3.2064,-3.2107,-3.2092,-3.2134,-3.2128,-3.2154,-3.2158,-3.2163,-3.2163,-3.2192,-3.2206,-3.2196,-3.219,-3.2203,-3.2218,-3.2213,-3.222,-3.2245,-3.2235,-3.2135,-3.212,-3.2106,-3.2094,-3.2247,-3.2247,-3.2341,-3.2342,-3.2343]}]]